Home   Weather   Cape Town   Past weeks

Flag for South Africa Past Weather in Cape Town, South Africa — Yesterday and Last 2 Weeks

72 °F

Passing clouds.

Feels Like: 75 °F
Forecast: 60 / 67 °F
Wind: 17 mph from Southwest

Location: Cape Town International Airport

Current Time: Oct 28, 2016 at 6:01:02 PM

Latest Report: Oct 28, 2016 at 5:00 PM

Visibility: N/A

Pressure: 30.01 "Hg

Humidity: 65%

Dew Point: 59 °F

Location of Cape TownLocation

Past Weather in Cape Town — Graph


Cape Town Temperature Yesterday

Maximum temperature yesterday: 72 °F (at 12:00 PM)
Minimum temperature yesterday: 61 °F (at 3:00 AM)
Average temperature yesterday: 66 °F

High & Low Weather Summary for the Past Weeks

High93 °F (Oct 26, 1:00 PM)94% (Oct 15, 12:00 AM)30.18 "Hg (Oct 15, 12:00 AM)
Low46 °F (Oct 14, 3:00 AM)20% (Oct 14, 1:00 PM)29.74 "Hg (Oct 26, 12:00 PM)
Average65 °F68%29.99 "Hg
* Reported Oct 13 5:00 PM — Oct 28 5:00 PM, Cape Town, Weather by CustomWeather, © 2016

Note: Actual official high and low records may vary slightly from our data, if they occured in-between our weather recording intervals... More about our weather records


Cape Town Weather History for the Previous 24 Hours

Scroll right to see more
Time TempWeatherWind HumidityBarometerVisibility
5:00 PM
Fri, Oct 28
72 °FPassing clouds.17 mph65%30.01 "HgN/A
4:00 PM75 °FPassing clouds.15 mph57%30.01 "HgN/A
3:00 PM75 °FPassing clouds.15 mph57%30.01 "HgN/A
2:00 PM75 °FPassing clouds.18 mph57%30.04 "HgN/A
1:00 PM77 °FPassing clouds.15 mph54%30.04 "HgN/A
12:00 PM79 °FPassing clouds.16 mph48%30.04 "HgN/A
11:00 AM79 °FPassing clouds.16 mph48%30.04 "HgN/A
10:00 AM75 °FPassing clouds.3 mph50%30.04 "HgN/A
9:00 AM72 °FPassing clouds.6 mph57%30.04 "HgN/A
8:00 AM70 °FPassing clouds.5 mph60%30.04 "HgN/A
7:00 AM64 °FSunny.7 mph73%30.04 "Hg10 mi
6:00 AM61 °FSunny.5 mph77%30.01 "Hg10 mi
5:00 AM63 °FClear.8 mph83%30.01 "Hg10 mi
4:00 AM63 °FClear.12 mph83%30.01 "Hg10 mi
3:00 AM63 °FClear.9 mph77%30.01 "Hg10 mi
2:00 AM64 °FClear.12 mph78%30.01 "Hg10 mi
1:00 AM64 °FClear.14 mph78%30.04 "Hg10 mi
12:00 AM66 °FPassing clouds.17 mph68%30.04 "HgN/A
11:00 PM
Thu, Oct 27
64 °FPassing clouds.17 mph78%30.07 "HgN/A
10:00 PM66 °FPassing clouds.20 mph73%30.07 "HgN/A
9:00 PM64 °FPassing clouds.17 mph78%30.07 "HgN/A
8:00 PM64 °FPassing clouds.20 mph78%30.07 "HgN/A
7:00 PM64 °FPassing clouds.23 mph73%30.07 "HgN/A
6:00 PM66 °FPassing clouds.23 mph64%30.07 "HgN/A
Weather by CustomWeather, © 2016

See weather overviewHow to use our weather pages